Index of /20260430/WXO-DD/model_rdps/10km/18/001
Name Last modified Size Description
Parent Directory -
20260430T18Z_MSC_RDPS_AbsoluteVorticity_IsbL-0250_RLatLon0.09_PT001H.grib2 2026-04-30 20:40 604K
20260430T18Z_MSC_RDPS_AbsoluteVorticity_IsbL-0500_RLatLon0.09_PT001H.grib2 2026-04-30 20:40 552K
20260430T18Z_MSC_RDPS_AbsoluteVorticity_IsbL-0700_RLatLon0.09_PT001H.grib2 2026-04-30 20:40 613K
20260430T18Z_MSC_RDPS_AbsoluteVorticity_IsbL-0850_RLatLon0.09_PT001H.grib2 2026-04-30 20:40 766K
20260430T18Z_MSC_RDPS_AirTemp_AGL-120m_RLatLon0.09_PT001H.grib2 2026-04-30 20:40 391K
20260430T18Z_MSC_RDPS_AirTemp_AGL-2m_RLatLon0.09_PT001H.grib2 2026-04-30 20:40 622K
20260430T18Z_MSC_RDPS_AirTemp_AGL-40m_RLatLon0.09_PT001H.grib2 2026-04-30 20:40 399K
20260430T18Z_MSC_RDPS_AirTemp_AGL-80m_RLatLon0.09_PT001H.grib2 2026-04-30 20:40 394K
20260430T18Z_MSC_RDPS_AirTemp_IsbL-0001_RLatLon0.09_PT001H.grib2 2026-04-30 20:40 281K
20260430T18Z_MSC_RDPS_AirTemp_IsbL-0005_RLatLon0.09_PT001H.grib2 2026-04-30 20:40 275K
20260430T18Z_MSC_RDPS_AirTemp_IsbL-0010_RLatLon0.09_PT001H.grib2 2026-04-30 20:40 285K
20260430T18Z_MSC_RDPS_AirTemp_IsbL-0020_RLatLon0.09_PT001H.grib2 2026-04-30 20:40 299K
20260430T18Z_MSC_RDPS_AirTemp_IsbL-0030_RLatLon0.09_PT001H.grib2 2026-04-30 20:40 319K
20260430T18Z_MSC_RDPS_AirTemp_IsbL-0050_RLatLon0.09_PT001H.grib2 2026-04-30 20:40 293K
20260430T18Z_MSC_RDPS_AirTemp_IsbL-0100_RLatLon0.09_PT001H.grib2 2026-04-30 20:40 404K
20260430T18Z_MSC_RDPS_AirTemp_IsbL-0150_RLatLon0.09_PT001H.grib2 2026-04-30 20:40 406K
20260430T18Z_MSC_RDPS_AirTemp_IsbL-0175_RLatLon0.09_PT001H.grib2 2026-04-30 20:40 398K
20260430T18Z_MSC_RDPS_AirTemp_IsbL-0200_RLatLon0.09_PT001H.grib2 2026-04-30 20:40 405K
20260430T18Z_MSC_RDPS_AirTemp_IsbL-0225_RLatLon0.09_PT001H.grib2 2026-04-30 20:40 406K
20260430T18Z_MSC_RDPS_AirTemp_IsbL-0250_RLatLon0.09_PT001H.grib2 2026-04-30 20:40 415K
20260430T18Z_MSC_RDPS_AirTemp_IsbL-0275_RLatLon0.09_PT001H.grib2 2026-04-30 20:40 398K
20260430T18Z_MSC_RDPS_AirTemp_IsbL-0300_RLatLon0.09_PT001H.grib2 2026-04-30 20:40 402K
20260430T18Z_MSC_RDPS_AirTemp_IsbL-0350_RLatLon0.09_PT001H.grib2 2026-04-30 20:40 419K
20260430T18Z_MSC_RDPS_AirTemp_IsbL-0400_RLatLon0.09_PT001H.grib2 2026-04-30 20:40 420K
20260430T18Z_MSC_RDPS_AirTemp_IsbL-0450_RLatLon0.09_PT001H.grib2 2026-04-30 20:40 392K
20260430T18Z_MSC_RDPS_AirTemp_IsbL-0500_RLatLon0.09_PT001H.grib2 2026-04-30 20:40 403K
20260430T18Z_MSC_RDPS_AirTemp_IsbL-0550_RLatLon0.09_PT001H.grib2 2026-04-30 20:40 421K
20260430T18Z_MSC_RDPS_AirTemp_IsbL-0600_RLatLon0.09_PT001H.grib2 2026-04-30 20:40 444K
20260430T18Z_MSC_RDPS_AirTemp_IsbL-0650_RLatLon0.09_PT001H.grib2 2026-04-30 20:40 359K
20260430T18Z_MSC_RDPS_AirTemp_IsbL-0700_RLatLon0.09_PT001H.grib2 2026-04-30 20:40 380K
20260430T18Z_MSC_RDPS_AirTemp_IsbL-0750_RLatLon0.09_PT001H.grib2 2026-04-30 20:40 411K
20260430T18Z_MSC_RDPS_AirTemp_IsbL-0800_RLatLon0.09_PT001H.grib2 2026-04-30 20:40 450K
20260430T18Z_MSC_RDPS_AirTemp_IsbL-0850_RLatLon0.09_PT001H.grib2 2026-04-30 20:40 493K
20260430T18Z_MSC_RDPS_AirTemp_IsbL-0875_RLatLon0.09_PT001H.grib2 2026-04-30 20:40 512K
20260430T18Z_MSC_RDPS_AirTemp_IsbL-0900_RLatLon0.09_PT001H.grib2 2026-04-30 20:40 523K
20260430T18Z_MSC_RDPS_AirTemp_IsbL-0925_RLatLon0.09_PT001H.grib2 2026-04-30 20:40 524K
20260430T18Z_MSC_RDPS_AirTemp_IsbL-0950_RLatLon0.09_PT001H.grib2 2026-04-30 20:40 527K
20260430T18Z_MSC_RDPS_AirTemp_IsbL-0970_RLatLon0.09_PT001H.grib2 2026-04-30 20:40 521K
20260430T18Z_MSC_RDPS_AirTemp_IsbL-0985_RLatLon0.09_PT001H.grib2 2026-04-30 20:40 522K
20260430T18Z_MSC_RDPS_AirTemp_IsbL-1000_RLatLon0.09_PT001H.grib2 2026-04-30 20:40 508K
20260430T18Z_MSC_RDPS_AirTemp_IsbL-1015_RLatLon0.09_PT001H.grib2 2026-04-30 20:40 505K
20260430T18Z_MSC_RDPS_Albedo_Sfc_RLatLon0.09_PT001H.grib2 2026-04-30 20:40 160K
20260430T18Z_MSC_RDPS_CAPE_Sfc_RLatLon0.09_PT001H.grib2 2026-04-30 20:40 1.6M
20260430T18Z_MSC_RDPS_CIN_Sfc_RLatLon0.09_PT001H.grib2 2026-04-30 20:40 1.1M
20260430T18Z_MSC_RDPS_CloudWater_EAtm_RLatLon0.09_PT001H.grib2 2026-04-30 20:40 217K
20260430T18Z_MSC_RDPS_ConvectivePrecip-Accum_Sfc_RLatLon0.09_PT001H.grib2 2026-04-30 20:40 328K
20260430T18Z_MSC_RDPS_DewPointDepression_AGL-2m_RLatLon0.09_PT001H.grib2 2026-04-30 20:40 414K
20260430T18Z_MSC_RDPS_DewPointDepression_IsbL-0001_RLatLon0.09_PT001H.grib2 2026-04-30 20:40 193
20260430T18Z_MSC_RDPS_DewPointDepression_IsbL-0005_RLatLon0.09_PT001H.grib2 2026-04-30 20:40 193
20260430T18Z_MSC_RDPS_DewPointDepression_IsbL-0010_RLatLon0.09_PT001H.grib2 2026-04-30 20:40 193
20260430T18Z_MSC_RDPS_DewPointDepression_IsbL-0020_RLatLon0.09_PT001H.grib2 2026-04-30 20:40 193
20260430T18Z_MSC_RDPS_DewPointDepression_IsbL-0030_RLatLon0.09_PT001H.grib2 2026-04-30 20:40 193
20260430T18Z_MSC_RDPS_DewPointDepression_IsbL-0050_RLatLon0.09_PT001H.grib2 2026-04-30 20:40 80K
20260430T18Z_MSC_RDPS_DewPointDepression_IsbL-0100_RLatLon0.09_PT001H.grib2 2026-04-30 20:40 126K
20260430T18Z_MSC_RDPS_DewPointDepression_IsbL-0150_RLatLon0.09_PT001H.grib2 2026-04-30 20:40 149K
20260430T18Z_MSC_RDPS_DewPointDepression_IsbL-0175_RLatLon0.09_PT001H.grib2 2026-04-30 20:40 182K
20260430T18Z_MSC_RDPS_DewPointDepression_IsbL-0200_RLatLon0.09_PT001H.grib2 2026-04-30 20:40 220K
20260430T18Z_MSC_RDPS_DewPointDepression_IsbL-0225_RLatLon0.09_PT001H.grib2 2026-04-30 20:40 261K
20260430T18Z_MSC_RDPS_DewPointDepression_IsbL-0250_RLatLon0.09_PT001H.grib2 2026-04-30 20:40 297K
20260430T18Z_MSC_RDPS_DewPointDepression_IsbL-0275_RLatLon0.09_PT001H.grib2 2026-04-30 20:40 303K
20260430T18Z_MSC_RDPS_DewPointDepression_IsbL-0300_RLatLon0.09_PT001H.grib2 2026-04-30 20:40 321K
20260430T18Z_MSC_RDPS_DewPointDepression_IsbL-0350_RLatLon0.09_PT001H.grib2 2026-04-30 20:40 326K
20260430T18Z_MSC_RDPS_DewPointDepression_IsbL-0400_RLatLon0.09_PT001H.grib2 2026-04-30 20:40 333K
20260430T18Z_MSC_RDPS_DewPointDepression_IsbL-0450_RLatLon0.09_PT001H.grib2 2026-04-30 20:40 337K
20260430T18Z_MSC_RDPS_DewPointDepression_IsbL-0500_RLatLon0.09_PT001H.grib2 2026-04-30 20:40 341K
20260430T18Z_MSC_RDPS_DewPointDepression_IsbL-0550_RLatLon0.09_PT001H.grib2 2026-04-30 20:40 352K
20260430T18Z_MSC_RDPS_DewPointDepression_IsbL-0600_RLatLon0.09_PT001H.grib2 2026-04-30 20:40 369K
20260430T18Z_MSC_RDPS_DewPointDepression_IsbL-0650_RLatLon0.09_PT001H.grib2 2026-04-30 20:40 378K
20260430T18Z_MSC_RDPS_DewPointDepression_IsbL-0700_RLatLon0.09_PT001H.grib2 2026-04-30 20:40 386K
20260430T18Z_MSC_RDPS_DewPointDepression_IsbL-0750_RLatLon0.09_PT001H.grib2 2026-04-30 20:40 404K
20260430T18Z_MSC_RDPS_DewPointDepression_IsbL-0800_RLatLon0.09_PT001H.grib2 2026-04-30 20:40 437K
20260430T18Z_MSC_RDPS_DewPointDepression_IsbL-0850_RLatLon0.09_PT001H.grib2 2026-04-30 20:40 459K
20260430T18Z_MSC_RDPS_DewPointDepression_IsbL-0875_RLatLon0.09_PT001H.grib2 2026-04-30 20:40 462K
20260430T18Z_MSC_RDPS_DewPointDepression_IsbL-0900_RLatLon0.09_PT001H.grib2 2026-04-30 20:40 458K
20260430T18Z_MSC_RDPS_DewPointDepression_IsbL-0925_RLatLon0.09_PT001H.grib2 2026-04-30 20:40 447K
20260430T18Z_MSC_RDPS_DewPointDepression_IsbL-0950_RLatLon0.09_PT001H.grib2 2026-04-30 20:40 443K
20260430T18Z_MSC_RDPS_DewPointDepression_IsbL-0970_RLatLon0.09_PT001H.grib2 2026-04-30 20:40 436K
20260430T18Z_MSC_RDPS_DewPointDepression_IsbL-0985_RLatLon0.09_PT001H.grib2 2026-04-30 20:40 431K
20260430T18Z_MSC_RDPS_DewPointDepression_IsbL-1000_RLatLon0.09_PT001H.grib2 2026-04-30 20:40 424K
20260430T18Z_MSC_RDPS_DewPointDepression_IsbL-1015_RLatLon0.09_PT001H.grib2 2026-04-30 20:40 416K
20260430T18Z_MSC_RDPS_DewPoint_AGL-2m_RLatLon0.09_PT001H.grib2 2026-04-30 20:40 308K
20260430T18Z_MSC_RDPS_DownwardLongwaveRadiationFlux-Accum_Sfc_RLatLon0.09_PT001H.grib2 2026-04-30 20:40 537K
20260430T18Z_MSC_RDPS_DownwardShortwaveRadiationFlux-Accum_NTAtm_RLatLon0.09_PT001H.grib2 2026-04-30 20:40 105K
20260430T18Z_MSC_RDPS_DownwardShortwaveRadiationFlux-Accum_Sfc_RLatLon0.09_PT001H.grib2 2026-04-30 20:40 669K
20260430T18Z_MSC_RDPS_FreezingRain-Accum1h_Sfc_RLatLon0.09_PT001H.grib2 2026-04-30 20:40 11K
20260430T18Z_MSC_RDPS_FreezingRain-Accum_Sfc_RLatLon0.09_PT001H.grib2 2026-04-30 20:40 14K
20260430T18Z_MSC_RDPS_GeopotentialHeight_IsbL-0001_RLatLon0.09_PT001H.grib2 2026-04-30 20:40 248K
20260430T18Z_MSC_RDPS_GeopotentialHeight_IsbL-0005_RLatLon0.09_PT001H.grib2 2026-04-30 20:40 339K
20260430T18Z_MSC_RDPS_GeopotentialHeight_IsbL-0010_RLatLon0.09_PT001H.grib2 2026-04-30 20:40 339K
20260430T18Z_MSC_RDPS_GeopotentialHeight_IsbL-0020_RLatLon0.09_PT001H.grib2 2026-04-30 20:40 304K
20260430T18Z_MSC_RDPS_GeopotentialHeight_IsbL-0030_RLatLon0.09_PT001H.grib2 2026-04-30 20:40 306K
20260430T18Z_MSC_RDPS_GeopotentialHeight_IsbL-0050_RLatLon0.09_PT001H.grib2 2026-04-30 20:40 306K
20260430T18Z_MSC_RDPS_GeopotentialHeight_IsbL-0100_RLatLon0.09_PT001H.grib2 2026-04-30 20:40 284K
20260430T18Z_MSC_RDPS_GeopotentialHeight_IsbL-0150_RLatLon0.09_PT001H.grib2 2026-04-30 20:40 229K
20260430T18Z_MSC_RDPS_GeopotentialHeight_IsbL-0175_RLatLon0.09_PT001H.grib2 2026-04-30 20:40 262K
20260430T18Z_MSC_RDPS_GeopotentialHeight_IsbL-0200_RLatLon0.09_PT001H.grib2 2026-04-30 20:40 265K
20260430T18Z_MSC_RDPS_GeopotentialHeight_IsbL-0225_RLatLon0.09_PT001H.grib2 2026-04-30 20:40 268K
20260430T18Z_MSC_RDPS_GeopotentialHeight_IsbL-0250_RLatLon0.09_PT001H.grib2 2026-04-30 20:40 268K
20260430T18Z_MSC_RDPS_GeopotentialHeight_IsbL-0275_RLatLon0.09_PT001H.grib2 2026-04-30 20:40 268K
20260430T18Z_MSC_RDPS_GeopotentialHeight_IsbL-0300_RLatLon0.09_PT001H.grib2 2026-04-30 20:40 268K
20260430T18Z_MSC_RDPS_GeopotentialHeight_IsbL-0350_RLatLon0.09_PT001H.grib2 2026-04-30 20:40 233K
20260430T18Z_MSC_RDPS_GeopotentialHeight_IsbL-0400_RLatLon0.09_PT001H.grib2 2026-04-30 20:40 230K
20260430T18Z_MSC_RDPS_GeopotentialHeight_IsbL-0450_RLatLon0.09_PT001H.grib2 2026-04-30 20:40 298K
20260430T18Z_MSC_RDPS_GeopotentialHeight_IsbL-0500_RLatLon0.09_PT001H.grib2 2026-04-30 20:40 292K
20260430T18Z_MSC_RDPS_GeopotentialHeight_IsbL-0550_RLatLon0.09_PT001H.grib2 2026-04-30 20:40 288K
20260430T18Z_MSC_RDPS_GeopotentialHeight_IsbL-0600_RLatLon0.09_PT001H.grib2 2026-04-30 20:40 284K
20260430T18Z_MSC_RDPS_GeopotentialHeight_IsbL-0650_RLatLon0.09_PT001H.grib2 2026-04-30 20:40 255K
20260430T18Z_MSC_RDPS_GeopotentialHeight_IsbL-0700_RLatLon0.09_PT001H.grib2 2026-04-30 20:40 336K
20260430T18Z_MSC_RDPS_GeopotentialHeight_IsbL-0750_RLatLon0.09_PT001H.grib2 2026-04-30 20:40 339K
20260430T18Z_MSC_RDPS_GeopotentialHeight_IsbL-0800_RLatLon0.09_PT001H.grib2 2026-04-30 20:40 346K
20260430T18Z_MSC_RDPS_GeopotentialHeight_IsbL-0850_RLatLon0.09_PT001H.grib2 2026-04-30 20:40 354K
20260430T18Z_MSC_RDPS_GeopotentialHeight_IsbL-0875_RLatLon0.09_PT001H.grib2 2026-04-30 20:40 390K
20260430T18Z_MSC_RDPS_GeopotentialHeight_IsbL-0900_RLatLon0.09_PT001H.grib2 2026-04-30 20:40 393K
20260430T18Z_MSC_RDPS_GeopotentialHeight_IsbL-0925_RLatLon0.09_PT001H.grib2 2026-04-30 20:40 396K
20260430T18Z_MSC_RDPS_GeopotentialHeight_IsbL-0950_RLatLon0.09_PT001H.grib2 2026-04-30 20:40 401K
20260430T18Z_MSC_RDPS_GeopotentialHeight_IsbL-0970_RLatLon0.09_PT001H.grib2 2026-04-30 20:40 409K
20260430T18Z_MSC_RDPS_GeopotentialHeight_IsbL-0985_RLatLon0.09_PT001H.grib2 2026-04-30 20:40 419K
20260430T18Z_MSC_RDPS_GeopotentialHeight_IsbL-1000_RLatLon0.09_PT001H.grib2 2026-04-30 20:40 432K
20260430T18Z_MSC_RDPS_GeopotentialHeight_IsbL-1015_RLatLon0.09_PT001H.grib2 2026-04-30 20:40 448K
20260430T18Z_MSC_RDPS_Humidex_Sfc_RLatLon0.09_PT001H.grib2 2026-04-30 20:40 2.4M
20260430T18Z_MSC_RDPS_IcePellets-Accum1h_Sfc_RLatLon0.09_PT001H.grib2 2026-04-30 20:40 1.8K
20260430T18Z_MSC_RDPS_IcePellets-Accum_Sfc_RLatLon0.09_PT001H.grib2 2026-04-30 20:40 2.2K
20260430T18Z_MSC_RDPS_KIndex_Sfc_RLatLon0.09_PT001H.grib2 2026-04-30 20:40 2.4M
20260430T18Z_MSC_RDPS_LatentHeatNetFlux_Sfc_RLatLon0.09_PT001H.grib2 2026-04-30 20:40 299K
20260430T18Z_MSC_RDPS_LiftedIndex-MU-VT_IsbL-0500_RLatLon0.09_PT001H.grib2 2026-04-30 20:40 2.4M
20260430T18Z_MSC_RDPS_NetLongwaveRadiationFlux-Accum_Sfc_RLatLon0.09_PT001H.grib2 2026-04-30 20:40 557K
20260430T18Z_MSC_RDPS_NetShortwaveRadiationFlux-Accum_Sfc_RLatLon0.09_PT001H.grib2 2026-04-30 20:40 651K
20260430T18Z_MSC_RDPS_PlanetaryBoundaryLayerHeight_Sfc_RLatLon0.09_PT001H.grib2 2026-04-30 20:40 1.0M
20260430T18Z_MSC_RDPS_Precip-Accum1h_Sfc_RLatLon0.09_PT001H.grib2 2026-04-30 20:40 1.1M
20260430T18Z_MSC_RDPS_Precip-Accum_Sfc_RLatLon0.09_PT001H.grib2 2026-04-30 20:40 1.1M
20260430T18Z_MSC_RDPS_PrecipRate_Sfc_RLatLon0.09_PT001H.grib2 2026-04-30 20:40 180K
20260430T18Z_MSC_RDPS_PrecipType-Instant_Sfc_RLatLon0.09_PT001H.grib2 2026-04-30 20:40 570K
20260430T18Z_MSC_RDPS_Pressure_MSL_RLatLon0.09_PT001H.grib2 2026-04-30 20:40 328K
20260430T18Z_MSC_RDPS_Pressure_PVU-1.5_RLatLon0.09_PT001H.grib2 2026-04-30 20:40 2.3M
20260430T18Z_MSC_RDPS_Pressure_PVU-1_RLatLon0.09_PT001H.grib2 2026-04-30 20:40 2.4M
20260430T18Z_MSC_RDPS_Pressure_PVU-2_RLatLon0.09_PT001H.grib2 2026-04-30 20:40 2.4M
20260430T18Z_MSC_RDPS_Pressure_Sfc_RLatLon0.09_PT001H.grib2 2026-04-30 20:40 500K
20260430T18Z_MSC_RDPS_RadiativeTemp_Sfc_RLatLon0.09_PT001H.grib2 2026-04-30 20:40 324K
20260430T18Z_MSC_RDPS_Rain-Accum1h_Sfc_RLatLon0.09_PT001H.grib2 2026-04-30 20:40 521K
20260430T18Z_MSC_RDPS_Rain-Accum_Sfc_RLatLon0.09_PT001H.grib2 2026-04-30 20:40 773K
20260430T18Z_MSC_RDPS_RelativeHumidity_AGL-2m_RLatLon0.09_PT001H.grib2 2026-04-30 20:40 1.0M
20260430T18Z_MSC_RDPS_RelativeHumidity_IsbL-0010_RLatLon0.09_PT001H.grib2 2026-04-30 20:40 628K
20260430T18Z_MSC_RDPS_RelativeHumidity_IsbL-0020_RLatLon0.09_PT001H.grib2 2026-04-30 20:40 676K
20260430T18Z_MSC_RDPS_RelativeHumidity_IsbL-0030_RLatLon0.09_PT001H.grib2 2026-04-30 20:40 596K
20260430T18Z_MSC_RDPS_RelativeHumidity_IsbL-0050_RLatLon0.09_PT001H.grib2 2026-04-30 20:40 307K
20260430T18Z_MSC_RDPS_RelativeHumidity_IsbL-0100_RLatLon0.09_PT001H.grib2 2026-04-30 20:40 273K
20260430T18Z_MSC_RDPS_RelativeHumidity_IsbL-0150_RLatLon0.09_PT001H.grib2 2026-04-30 20:40 400K
20260430T18Z_MSC_RDPS_RelativeHumidity_IsbL-0175_RLatLon0.09_PT001H.grib2 2026-04-30 20:40 471K
20260430T18Z_MSC_RDPS_RelativeHumidity_IsbL-0200_RLatLon0.09_PT001H.grib2 2026-04-30 20:40 549K
20260430T18Z_MSC_RDPS_RelativeHumidity_IsbL-0225_RLatLon0.09_PT001H.grib2 2026-04-30 20:40 619K
20260430T18Z_MSC_RDPS_RelativeHumidity_IsbL-0250_RLatLon0.09_PT001H.grib2 2026-04-30 20:40 687K
20260430T18Z_MSC_RDPS_RelativeHumidity_IsbL-0275_RLatLon0.09_PT001H.grib2 2026-04-30 20:40 712K
20260430T18Z_MSC_RDPS_RelativeHumidity_IsbL-0300_RLatLon0.09_PT001H.grib2 2026-04-30 20:40 753K
20260430T18Z_MSC_RDPS_RelativeHumidity_IsbL-0350_RLatLon0.09_PT001H.grib2 2026-04-30 20:40 770K
20260430T18Z_MSC_RDPS_RelativeHumidity_IsbL-0400_RLatLon0.09_PT001H.grib2 2026-04-30 20:40 778K
20260430T18Z_MSC_RDPS_RelativeHumidity_IsbL-0450_RLatLon0.09_PT001H.grib2 2026-04-30 20:40 779K
20260430T18Z_MSC_RDPS_RelativeHumidity_IsbL-0500_RLatLon0.09_PT001H.grib2 2026-04-30 20:40 793K
20260430T18Z_MSC_RDPS_RelativeHumidity_IsbL-0550_RLatLon0.09_PT001H.grib2 2026-04-30 20:40 812K
20260430T18Z_MSC_RDPS_RelativeHumidity_IsbL-0600_RLatLon0.09_PT001H.grib2 2026-04-30 20:40 839K
20260430T18Z_MSC_RDPS_RelativeHumidity_IsbL-0650_RLatLon0.09_PT001H.grib2 2026-04-30 20:40 857K
20260430T18Z_MSC_RDPS_RelativeHumidity_IsbL-0700_RLatLon0.09_PT001H.grib2 2026-04-30 20:40 880K
20260430T18Z_MSC_RDPS_RelativeHumidity_IsbL-0750_RLatLon0.09_PT001H.grib2 2026-04-30 20:40 920K
20260430T18Z_MSC_RDPS_RelativeHumidity_IsbL-0800_RLatLon0.09_PT001H.grib2 2026-04-30 20:40 1.0M
20260430T18Z_MSC_RDPS_RelativeHumidity_IsbL-0850_RLatLon0.09_PT001H.grib2 2026-04-30 20:40 1.0M
20260430T18Z_MSC_RDPS_RelativeHumidity_IsbL-0875_RLatLon0.09_PT001H.grib2 2026-04-30 20:40 1.0M
20260430T18Z_MSC_RDPS_RelativeHumidity_IsbL-0900_RLatLon0.09_PT001H.grib2 2026-04-30 20:40 1.0M
20260430T18Z_MSC_RDPS_RelativeHumidity_IsbL-0925_RLatLon0.09_PT001H.grib2 2026-04-30 20:40 1.0M
20260430T18Z_MSC_RDPS_RelativeHumidity_IsbL-0950_RLatLon0.09_PT001H.grib2 2026-04-30 20:40 1.0M
20260430T18Z_MSC_RDPS_RelativeHumidity_IsbL-0970_RLatLon0.09_PT001H.grib2 2026-04-30 20:40 1.0M
20260430T18Z_MSC_RDPS_RelativeHumidity_IsbL-0985_RLatLon0.09_PT001H.grib2 2026-04-30 20:40 1.0M
20260430T18Z_MSC_RDPS_RelativeHumidity_IsbL-1000_RLatLon0.09_PT001H.grib2 2026-04-30 20:40 1.0M
20260430T18Z_MSC_RDPS_RelativeHumidity_IsbL-1015_RLatLon0.09_PT001H.grib2 2026-04-30 20:40 1.0M
20260430T18Z_MSC_RDPS_Runoff-Accum_Sfc_RLatLon0.09_PT001H.grib2 2026-04-30 20:40 29K
20260430T18Z_MSC_RDPS_SWEATIndex_Sfc_RLatLon0.09_PT001H.grib2 2026-04-30 20:40 2.4M
20260430T18Z_MSC_RDPS_SeeingIndex_EAtm_RLatLon0.09_PT001H.grib2 2026-04-30 20:40 1.0M
20260430T18Z_MSC_RDPS_SensibleHeatNetFlux_Sfc_RLatLon0.09_PT001H.grib2 2026-04-30 20:40 357K
20260430T18Z_MSC_RDPS_ShowalterIndex_IsbL-0500_RLatLon0.09_PT001H.grib2 2026-04-30 20:40 2.6M
20260430T18Z_MSC_RDPS_SkyTransparencyIndex_EAtm_RLatLon0.09_PT001H.grib2 2026-04-30 20:40 676K
20260430T18Z_MSC_RDPS_Snow-Accum1h_Sfc_RLatLon0.09_PT001H.grib2 2026-04-30 20:40 488K
20260430T18Z_MSC_RDPS_Snow-Accum_Sfc_RLatLon0.09_PT001H.grib2 2026-04-30 20:40 572K
20260430T18Z_MSC_RDPS_SnowDensity_Sfc_RLatLon0.09_PT001H.grib2 2026-04-30 20:40 166K
20260430T18Z_MSC_RDPS_SnowDepth_Sfc_RLatLon0.09_PT001H.grib2 2026-04-30 20:40 665K
20260430T18Z_MSC_RDPS_SoilTemp_DBS-0to10cm_RLatLon0.09_PT001H.grib2 2026-04-30 20:40 189K
20260430T18Z_MSC_RDPS_SoilTemp_Sfc_RLatLon0.09_PT001H.grib2 2026-04-30 20:40 285K
20260430T18Z_MSC_RDPS_SoilVolumetricIceContent_Sfc_RLatLon0.09_PT001H.grib2 2026-04-30 20:40 163K
20260430T18Z_MSC_RDPS_SoilVolumetricWaterContent_DBS-0to10cm_RLatLon0.09_PT001H.grib2 2026-04-30 20:40 267K
20260430T18Z_MSC_RDPS_SoilVolumetricWaterContent_DBS-0to1cm_RLatLon0.09_PT001H.grib2 2026-04-30 20:40 329K
20260430T18Z_MSC_RDPS_SpecificHumidity_AGL-120m_RLatLon0.09_PT001H.grib2 2026-04-30 20:40 485K
20260430T18Z_MSC_RDPS_SpecificHumidity_AGL-2m_RLatLon0.09_PT001H.grib2 2026-04-30 20:40 651K
20260430T18Z_MSC_RDPS_SpecificHumidity_AGL-40m_RLatLon0.09_PT001H.grib2 2026-04-30 20:40 489K
20260430T18Z_MSC_RDPS_SpecificHumidity_AGL-80m_RLatLon0.09_PT001H.grib2 2026-04-30 20:40 486K
20260430T18Z_MSC_RDPS_SpecificHumidity_IsbL-0001_RLatLon0.09_PT001H.grib2 2026-04-30 20:40 398K
20260430T18Z_MSC_RDPS_SpecificHumidity_IsbL-0005_RLatLon0.09_PT001H.grib2 2026-04-30 20:40 354K
20260430T18Z_MSC_RDPS_SpecificHumidity_IsbL-0010_RLatLon0.09_PT001H.grib2 2026-04-30 20:40 387K
20260430T18Z_MSC_RDPS_SpecificHumidity_IsbL-0020_RLatLon0.09_PT001H.grib2 2026-04-30 20:40 380K
20260430T18Z_MSC_RDPS_SpecificHumidity_IsbL-0030_RLatLon0.09_PT001H.grib2 2026-04-30 20:40 366K
20260430T18Z_MSC_RDPS_SpecificHumidity_IsbL-0050_RLatLon0.09_PT001H.grib2 2026-04-30 20:40 453K
20260430T18Z_MSC_RDPS_SpecificHumidity_IsbL-0100_RLatLon0.09_PT001H.grib2 2026-04-30 20:40 439K
20260430T18Z_MSC_RDPS_SpecificHumidity_IsbL-0150_RLatLon0.09_PT001H.grib2 2026-04-30 20:40 469K
20260430T18Z_MSC_RDPS_SpecificHumidity_IsbL-0175_RLatLon0.09_PT001H.grib2 2026-04-30 20:40 531K
20260430T18Z_MSC_RDPS_SpecificHumidity_IsbL-0200_RLatLon0.09_PT001H.grib2 2026-04-30 20:40 447K
20260430T18Z_MSC_RDPS_SpecificHumidity_IsbL-0225_RLatLon0.09_PT001H.grib2 2026-04-30 20:40 452K
20260430T18Z_MSC_RDPS_SpecificHumidity_IsbL-0250_RLatLon0.09_PT001H.grib2 2026-04-30 20:40 511K
20260430T18Z_MSC_RDPS_SpecificHumidity_IsbL-0275_RLatLon0.09_PT001H.grib2 2026-04-30 20:40 472K
20260430T18Z_MSC_RDPS_SpecificHumidity_IsbL-0300_RLatLon0.09_PT001H.grib2 2026-04-30 20:40 447K
20260430T18Z_MSC_RDPS_SpecificHumidity_IsbL-0350_RLatLon0.09_PT001H.grib2 2026-04-30 20:40 437K
20260430T18Z_MSC_RDPS_SpecificHumidity_IsbL-0400_RLatLon0.09_PT001H.grib2 2026-04-30 20:40 511K
20260430T18Z_MSC_RDPS_SpecificHumidity_IsbL-0450_RLatLon0.09_PT001H.grib2 2026-04-30 20:40 445K
20260430T18Z_MSC_RDPS_SpecificHumidity_IsbL-0500_RLatLon0.09_PT001H.grib2 2026-04-30 20:40 494K
20260430T18Z_MSC_RDPS_SpecificHumidity_IsbL-0550_RLatLon0.09_PT001H.grib2 2026-04-30 20:40 568K
20260430T18Z_MSC_RDPS_SpecificHumidity_IsbL-0600_RLatLon0.09_PT001H.grib2 2026-04-30 20:40 625K
20260430T18Z_MSC_RDPS_SpecificHumidity_IsbL-0650_RLatLon0.09_PT001H.grib2 2026-04-30 20:40 547K
20260430T18Z_MSC_RDPS_SpecificHumidity_IsbL-0700_RLatLon0.09_PT001H.grib2 2026-04-30 20:40 587K
20260430T18Z_MSC_RDPS_SpecificHumidity_IsbL-0750_RLatLon0.09_PT001H.grib2 2026-04-30 20:40 642K
20260430T18Z_MSC_RDPS_SpecificHumidity_IsbL-0800_RLatLon0.09_PT001H.grib2 2026-04-30 20:40 723K
20260430T18Z_MSC_RDPS_SpecificHumidity_IsbL-0850_RLatLon0.09_PT001H.grib2 2026-04-30 20:40 790K
20260430T18Z_MSC_RDPS_SpecificHumidity_IsbL-0875_RLatLon0.09_PT001H.grib2 2026-04-30 20:40 679K
20260430T18Z_MSC_RDPS_SpecificHumidity_IsbL-0900_RLatLon0.09_PT001H.grib2 2026-04-30 20:40 693K
20260430T18Z_MSC_RDPS_SpecificHumidity_IsbL-0925_RLatLon0.09_PT001H.grib2 2026-04-30 20:40 696K
20260430T18Z_MSC_RDPS_SpecificHumidity_IsbL-0950_RLatLon0.09_PT001H.grib2 2026-04-30 20:40 700K
20260430T18Z_MSC_RDPS_SpecificHumidity_IsbL-0970_RLatLon0.09_PT001H.grib2 2026-04-30 20:40 691K
20260430T18Z_MSC_RDPS_SpecificHumidity_IsbL-0985_RLatLon0.09_PT001H.grib2 2026-04-30 20:40 682K
20260430T18Z_MSC_RDPS_SpecificHumidity_IsbL-1000_RLatLon0.09_PT001H.grib2 2026-04-30 20:40 672K
20260430T18Z_MSC_RDPS_SpecificHumidity_IsbL-1015_RLatLon0.09_PT001H.grib2 2026-04-30 20:40 662K
20260430T18Z_MSC_RDPS_SpecificHumidity_Sfc_RLatLon0.09_PT001H.grib2 2026-04-30 20:40 337K
20260430T18Z_MSC_RDPS_StormRelativeHelicity_EtaL-10000_RLatLon0.09_PT001H.grib2 2026-04-30 20:40 1.1M
20260430T18Z_MSC_RDPS_StormSeverityIndex_EtaL-10000_RLatLon0.09_PT001H.grib2 2026-04-30 20:40 1.2M
20260430T18Z_MSC_RDPS_Thickness_IsbL-0850to0700_RLatLon0.09_PT001H.grib2 2026-04-30 20:40 179K
20260430T18Z_MSC_RDPS_Thickness_IsbL-1000to0500_RLatLon0.09_PT001H.grib2 2026-04-30 20:40 139K
20260430T18Z_MSC_RDPS_Thickness_IsbL-1000to0850_RLatLon0.09_PT001H.grib2 2026-04-30 20:40 190K
20260430T18Z_MSC_RDPS_TotalCloudCover_Sfc_RLatLon0.09_PT001H.grib2 2026-04-30 20:40 645K
20260430T18Z_MSC_RDPS_TotalTotalsIndex_Sfc_RLatLon0.09_PT001H.grib2 2026-04-30 20:40 2.3M
20260430T18Z_MSC_RDPS_UVIndex-ClearSky_Sfc_RLatLon0.09_PT001H.grib2 2026-04-30 20:40 226K
20260430T18Z_MSC_RDPS_UVIndex_Sfc_RLatLon0.09_PT001H.grib2 2026-04-30 20:40 520K
20260430T18Z_MSC_RDPS_UpwardLongwaveRadiationFlux_NTAtm_RLatLon0.09_PT001H.grib2 2026-04-30 20:40 382K
20260430T18Z_MSC_RDPS_UpwardShortwaveRadiationFlux_NTAtm_RLatLon0.09_PT001H.grib2 2026-04-30 20:40 551K
20260430T18Z_MSC_RDPS_VerticalVelocity_IsbL-0250_RLatLon0.09_PT001H.grib2 2026-04-30 20:40 545K
20260430T18Z_MSC_RDPS_VerticalVelocity_IsbL-0500_RLatLon0.09_PT001H.grib2 2026-04-30 20:40 537K
20260430T18Z_MSC_RDPS_VerticalVelocity_IsbL-0700_RLatLon0.09_PT001H.grib2 2026-04-30 20:40 592K
20260430T18Z_MSC_RDPS_VerticalVelocity_IsbL-0850_RLatLon0.09_PT001H.grib2 2026-04-30 20:40 691K
20260430T18Z_MSC_RDPS_VerticalWindShear_EtaL-6500_RLatLon0.09_PT001H.grib2 2026-04-30 20:40 1.2M
20260430T18Z_MSC_RDPS_WindChill_Sfc_RLatLon0.09_PT001H.grib2 2026-04-30 20:40 1.1M
20260430T18Z_MSC_RDPS_WindDir_AGL-10m_RLatLon0.09_PT001H.grib2 2026-04-30 20:40 967K
20260430T18Z_MSC_RDPS_WindDir_AGL-120m_RLatLon0.09_PT001H.grib2 2026-04-30 20:40 616K
20260430T18Z_MSC_RDPS_WindDir_AGL-40m_RLatLon0.09_PT001H.grib2 2026-04-30 20:40 637K
20260430T18Z_MSC_RDPS_WindDir_AGL-80m_RLatLon0.09_PT001H.grib2 2026-04-30 20:40 625K
20260430T18Z_MSC_RDPS_WindDir_IsbL-0001_RLatLon0.09_PT001H.grib2 2026-04-30 20:40 283K
20260430T18Z_MSC_RDPS_WindDir_IsbL-0005_RLatLon0.09_PT001H.grib2 2026-04-30 20:40 346K
20260430T18Z_MSC_RDPS_WindDir_IsbL-0010_RLatLon0.09_PT001H.grib2 2026-04-30 20:40 352K
20260430T18Z_MSC_RDPS_WindDir_IsbL-0020_RLatLon0.09_PT001H.grib2 2026-04-30 20:40 393K
20260430T18Z_MSC_RDPS_WindDir_IsbL-0030_RLatLon0.09_PT001H.grib2 2026-04-30 20:40 394K
20260430T18Z_MSC_RDPS_WindDir_IsbL-0050_RLatLon0.09_PT001H.grib2 2026-04-30 20:40 397K
20260430T18Z_MSC_RDPS_WindDir_IsbL-0100_RLatLon0.09_PT001H.grib2 2026-04-30 20:40 416K
20260430T18Z_MSC_RDPS_WindDir_IsbL-0150_RLatLon0.09_PT001H.grib2 2026-04-30 20:40 421K
20260430T18Z_MSC_RDPS_WindDir_IsbL-0175_RLatLon0.09_PT001H.grib2 2026-04-30 20:40 438K
20260430T18Z_MSC_RDPS_WindDir_IsbL-0200_RLatLon0.09_PT001H.grib2 2026-04-30 20:40 450K
20260430T18Z_MSC_RDPS_WindDir_IsbL-0225_RLatLon0.09_PT001H.grib2 2026-04-30 20:40 450K
20260430T18Z_MSC_RDPS_WindDir_IsbL-0250_RLatLon0.09_PT001H.grib2 2026-04-30 20:40 451K
20260430T18Z_MSC_RDPS_WindDir_IsbL-0275_RLatLon0.09_PT001H.grib2 2026-04-30 20:40 475K
20260430T18Z_MSC_RDPS_WindDir_IsbL-0300_RLatLon0.09_PT001H.grib2 2026-04-30 20:40 475K
20260430T18Z_MSC_RDPS_WindDir_IsbL-0350_RLatLon0.09_PT001H.grib2 2026-04-30 20:40 489K
20260430T18Z_MSC_RDPS_WindDir_IsbL-0400_RLatLon0.09_PT001H.grib2 2026-04-30 20:40 497K
20260430T18Z_MSC_RDPS_WindDir_IsbL-0450_RLatLon0.09_PT001H.grib2 2026-04-30 20:40 506K
20260430T18Z_MSC_RDPS_WindDir_IsbL-0500_RLatLon0.09_PT001H.grib2 2026-04-30 20:40 527K
20260430T18Z_MSC_RDPS_WindDir_IsbL-0550_RLatLon0.09_PT001H.grib2 2026-04-30 20:40 549K
20260430T18Z_MSC_RDPS_WindDir_IsbL-0600_RLatLon0.09_PT001H.grib2 2026-04-30 20:40 586K
20260430T18Z_MSC_RDPS_WindDir_IsbL-0650_RLatLon0.09_PT001H.grib2 2026-04-30 20:40 634K
20260430T18Z_MSC_RDPS_WindDir_IsbL-0700_RLatLon0.09_PT001H.grib2 2026-04-30 20:40 687K
20260430T18Z_MSC_RDPS_WindDir_IsbL-0750_RLatLon0.09_PT001H.grib2 2026-04-30 20:40 735K
20260430T18Z_MSC_RDPS_WindDir_IsbL-0800_RLatLon0.09_PT001H.grib2 2026-04-30 20:40 799K
20260430T18Z_MSC_RDPS_WindDir_IsbL-0850_RLatLon0.09_PT001H.grib2 2026-04-30 20:40 862K
20260430T18Z_MSC_RDPS_WindDir_IsbL-0875_RLatLon0.09_PT001H.grib2 2026-04-30 20:40 886K
20260430T18Z_MSC_RDPS_WindDir_IsbL-0900_RLatLon0.09_PT001H.grib2 2026-04-30 20:40 906K
20260430T18Z_MSC_RDPS_WindDir_IsbL-0925_RLatLon0.09_PT001H.grib2 2026-04-30 20:40 915K
20260430T18Z_MSC_RDPS_WindDir_IsbL-0950_RLatLon0.09_PT001H.grib2 2026-04-30 20:40 913K
20260430T18Z_MSC_RDPS_WindDir_IsbL-0970_RLatLon0.09_PT001H.grib2 2026-04-30 20:40 923K
20260430T18Z_MSC_RDPS_WindDir_IsbL-0985_RLatLon0.09_PT001H.grib2 2026-04-30 20:40 933K
20260430T18Z_MSC_RDPS_WindDir_IsbL-1000_RLatLon0.09_PT001H.grib2 2026-04-30 20:40 946K
20260430T18Z_MSC_RDPS_WindDir_IsbL-1015_RLatLon0.09_PT001H.grib2 2026-04-30 20:40 961K
20260430T18Z_MSC_RDPS_WindGust-Max_AGL-10m_RLatLon0.09_PT001H.grib2 2026-04-30 20:40 1.0M
20260430T18Z_MSC_RDPS_WindGust-Min_AGL-10m_RLatLon0.09_PT001H.grib2 2026-04-30 20:40 956K
20260430T18Z_MSC_RDPS_WindGust_AGL-10m_RLatLon0.09_PT001H.grib2 2026-04-30 20:40 967K
20260430T18Z_MSC_RDPS_WindSpeed_AGL-10m_RLatLon0.09_PT001H.grib2 2026-04-30 20:40 824K
20260430T18Z_MSC_RDPS_WindSpeed_AGL-120m_RLatLon0.09_PT001H.grib2 2026-04-30 20:40 526K
20260430T18Z_MSC_RDPS_WindSpeed_AGL-40m_RLatLon0.09_PT001H.grib2 2026-04-30 20:40 527K
20260430T18Z_MSC_RDPS_WindSpeed_AGL-80m_RLatLon0.09_PT001H.grib2 2026-04-30 20:40 526K
20260430T18Z_MSC_RDPS_WindSpeed_IsbL-0001_RLatLon0.09_PT001H.grib2 2026-04-30 20:40 325K
20260430T18Z_MSC_RDPS_WindSpeed_IsbL-0005_RLatLon0.09_PT001H.grib2 2026-04-30 20:40 366K
20260430T18Z_MSC_RDPS_WindSpeed_IsbL-0010_RLatLon0.09_PT001H.grib2 2026-04-30 20:40 377K
20260430T18Z_MSC_RDPS_WindSpeed_IsbL-0020_RLatLon0.09_PT001H.grib2 2026-04-30 20:40 306K
20260430T18Z_MSC_RDPS_WindSpeed_IsbL-0030_RLatLon0.09_PT001H.grib2 2026-04-30 20:40 308K
20260430T18Z_MSC_RDPS_WindSpeed_IsbL-0050_RLatLon0.09_PT001H.grib2 2026-04-30 20:40 328K
20260430T18Z_MSC_RDPS_WindSpeed_IsbL-0100_RLatLon0.09_PT001H.grib2 2026-04-30 20:40 457K
20260430T18Z_MSC_RDPS_WindSpeed_IsbL-0150_RLatLon0.09_PT001H.grib2 2026-04-30 20:40 372K
20260430T18Z_MSC_RDPS_WindSpeed_IsbL-0175_RLatLon0.09_PT001H.grib2 2026-04-30 20:40 419K
20260430T18Z_MSC_RDPS_WindSpeed_IsbL-0200_RLatLon0.09_PT001H.grib2 2026-04-30 20:40 436K
20260430T18Z_MSC_RDPS_WindSpeed_IsbL-0225_RLatLon0.09_PT001H.grib2 2026-04-30 20:40 442K
20260430T18Z_MSC_RDPS_WindSpeed_IsbL-0250_RLatLon0.09_PT001H.grib2 2026-04-30 20:40 448K
20260430T18Z_MSC_RDPS_WindSpeed_IsbL-0275_RLatLon0.09_PT001H.grib2 2026-04-30 20:40 467K
20260430T18Z_MSC_RDPS_WindSpeed_IsbL-0300_RLatLon0.09_PT001H.grib2 2026-04-30 20:40 464K
20260430T18Z_MSC_RDPS_WindSpeed_IsbL-0350_RLatLon0.09_PT001H.grib2 2026-04-30 20:40 473K
20260430T18Z_MSC_RDPS_WindSpeed_IsbL-0400_RLatLon0.09_PT001H.grib2 2026-04-30 20:40 474K
20260430T18Z_MSC_RDPS_WindSpeed_IsbL-0450_RLatLon0.09_PT001H.grib2 2026-04-30 20:40 473K
20260430T18Z_MSC_RDPS_WindSpeed_IsbL-0500_RLatLon0.09_PT001H.grib2 2026-04-30 20:40 473K
20260430T18Z_MSC_RDPS_WindSpeed_IsbL-0550_RLatLon0.09_PT001H.grib2 2026-04-30 20:40 457K
20260430T18Z_MSC_RDPS_WindSpeed_IsbL-0600_RLatLon0.09_PT001H.grib2 2026-04-30 20:40 468K
20260430T18Z_MSC_RDPS_WindSpeed_IsbL-0650_RLatLon0.09_PT001H.grib2 2026-04-30 20:40 607K
20260430T18Z_MSC_RDPS_WindSpeed_IsbL-0700_RLatLon0.09_PT001H.grib2 2026-04-30 20:40 634K
20260430T18Z_MSC_RDPS_WindSpeed_IsbL-0750_RLatLon0.09_PT001H.grib2 2026-04-30 20:40 706K
20260430T18Z_MSC_RDPS_WindSpeed_IsbL-0800_RLatLon0.09_PT001H.grib2 2026-04-30 20:40 752K
20260430T18Z_MSC_RDPS_WindSpeed_IsbL-0850_RLatLon0.09_PT001H.grib2 2026-04-30 20:40 796K
20260430T18Z_MSC_RDPS_WindSpeed_IsbL-0875_RLatLon0.09_PT001H.grib2 2026-04-30 20:40 815K
20260430T18Z_MSC_RDPS_WindSpeed_IsbL-0900_RLatLon0.09_PT001H.grib2 2026-04-30 20:40 835K
20260430T18Z_MSC_RDPS_WindSpeed_IsbL-0925_RLatLon0.09_PT001H.grib2 2026-04-30 20:40 841K
20260430T18Z_MSC_RDPS_WindSpeed_IsbL-0950_RLatLon0.09_PT001H.grib2 2026-04-30 20:40 842K
20260430T18Z_MSC_RDPS_WindSpeed_IsbL-0970_RLatLon0.09_PT001H.grib2 2026-04-30 20:40 843K
20260430T18Z_MSC_RDPS_WindSpeed_IsbL-0985_RLatLon0.09_PT001H.grib2 2026-04-30 20:40 839K
20260430T18Z_MSC_RDPS_WindSpeed_IsbL-1000_RLatLon0.09_PT001H.grib2 2026-04-30 20:40 835K
20260430T18Z_MSC_RDPS_WindSpeed_IsbL-1015_RLatLon0.09_PT001H.grib2 2026-04-30 20:40 825K
20260430T18Z_MSC_RDPS_WindU_AGL-10m_RLatLon0.09_PT001H.grib2 2026-04-30 20:40 427K
20260430T18Z_MSC_RDPS_WindU_AGL-120m_RLatLon0.09_PT001H.grib2 2026-04-30 20:40 526K
20260430T18Z_MSC_RDPS_WindU_AGL-40m_RLatLon0.09_PT001H.grib2 2026-04-30 20:40 528K
20260430T18Z_MSC_RDPS_WindU_AGL-80m_RLatLon0.09_PT001H.grib2 2026-04-30 20:40 527K
20260430T18Z_MSC_RDPS_WindU_IsbL-0001_RLatLon0.09_PT001H.grib2 2026-04-30 20:40 238K
20260430T18Z_MSC_RDPS_WindU_IsbL-0005_RLatLon0.09_PT001H.grib2 2026-04-30 20:40 274K
20260430T18Z_MSC_RDPS_WindU_IsbL-0010_RLatLon0.09_PT001H.grib2 2026-04-30 20:40 281K
20260430T18Z_MSC_RDPS_WindU_IsbL-0020_RLatLon0.09_PT001H.grib2 2026-04-30 20:40 295K
20260430T18Z_MSC_RDPS_WindU_IsbL-0030_RLatLon0.09_PT001H.grib2 2026-04-30 20:40 298K
20260430T18Z_MSC_RDPS_WindU_IsbL-0050_RLatLon0.09_PT001H.grib2 2026-04-30 20:40 358K
20260430T18Z_MSC_RDPS_WindU_IsbL-0100_RLatLon0.09_PT001H.grib2 2026-04-30 20:40 414K
20260430T18Z_MSC_RDPS_WindU_IsbL-0150_RLatLon0.09_PT001H.grib2 2026-04-30 20:40 389K
20260430T18Z_MSC_RDPS_WindU_IsbL-0175_RLatLon0.09_PT001H.grib2 2026-04-30 20:40 413K
20260430T18Z_MSC_RDPS_WindU_IsbL-0200_RLatLon0.09_PT001H.grib2 2026-04-30 20:40 429K
20260430T18Z_MSC_RDPS_WindU_IsbL-0225_RLatLon0.09_PT001H.grib2 2026-04-30 20:40 337K
20260430T18Z_MSC_RDPS_WindU_IsbL-0250_RLatLon0.09_PT001H.grib2 2026-04-30 20:40 340K
20260430T18Z_MSC_RDPS_WindU_IsbL-0275_RLatLon0.09_PT001H.grib2 2026-04-30 20:40 355K
20260430T18Z_MSC_RDPS_WindU_IsbL-0300_RLatLon0.09_PT001H.grib2 2026-04-30 20:40 352K
20260430T18Z_MSC_RDPS_WindU_IsbL-0350_RLatLon0.09_PT001H.grib2 2026-04-30 20:40 360K
20260430T18Z_MSC_RDPS_WindU_IsbL-0400_RLatLon0.09_PT001H.grib2 2026-04-30 20:40 463K
20260430T18Z_MSC_RDPS_WindU_IsbL-0450_RLatLon0.09_PT001H.grib2 2026-04-30 20:40 461K
20260430T18Z_MSC_RDPS_WindU_IsbL-0500_RLatLon0.09_PT001H.grib2 2026-04-30 20:40 461K
20260430T18Z_MSC_RDPS_WindU_IsbL-0550_RLatLon0.09_PT001H.grib2 2026-04-30 20:40 464K
20260430T18Z_MSC_RDPS_WindU_IsbL-0600_RLatLon0.09_PT001H.grib2 2026-04-30 20:40 457K
20260430T18Z_MSC_RDPS_WindU_IsbL-0650_RLatLon0.09_PT001H.grib2 2026-04-30 20:40 479K
20260430T18Z_MSC_RDPS_WindU_IsbL-0700_RLatLon0.09_PT001H.grib2 2026-04-30 20:40 503K
20260430T18Z_MSC_RDPS_WindU_IsbL-0750_RLatLon0.09_PT001H.grib2 2026-04-30 20:40 529K
20260430T18Z_MSC_RDPS_WindU_IsbL-0800_RLatLon0.09_PT001H.grib2 2026-04-30 20:40 698K
20260430T18Z_MSC_RDPS_WindU_IsbL-0850_RLatLon0.09_PT001H.grib2 2026-04-30 20:40 747K
20260430T18Z_MSC_RDPS_WindU_IsbL-0875_RLatLon0.09_PT001H.grib2 2026-04-30 20:40 764K
20260430T18Z_MSC_RDPS_WindU_IsbL-0900_RLatLon0.09_PT001H.grib2 2026-04-30 20:40 777K
20260430T18Z_MSC_RDPS_WindU_IsbL-0925_RLatLon0.09_PT001H.grib2 2026-04-30 20:40 784K
20260430T18Z_MSC_RDPS_WindU_IsbL-0950_RLatLon0.09_PT001H.grib2 2026-04-30 20:40 783K
20260430T18Z_MSC_RDPS_WindU_IsbL-0970_RLatLon0.09_PT001H.grib2 2026-04-30 20:40 783K
20260430T18Z_MSC_RDPS_WindU_IsbL-0985_RLatLon0.09_PT001H.grib2 2026-04-30 20:40 780K
20260430T18Z_MSC_RDPS_WindU_IsbL-1000_RLatLon0.09_PT001H.grib2 2026-04-30 20:40 777K
20260430T18Z_MSC_RDPS_WindU_IsbL-1015_RLatLon0.09_PT001H.grib2 2026-04-30 20:40 816K
20260430T18Z_MSC_RDPS_WindV_AGL-10m_RLatLon0.09_PT001H.grib2 2026-04-30 20:40 426K
20260430T18Z_MSC_RDPS_WindV_AGL-120m_RLatLon0.09_PT001H.grib2 2026-04-30 20:40 524K
20260430T18Z_MSC_RDPS_WindV_AGL-40m_RLatLon0.09_PT001H.grib2 2026-04-30 20:40 525K
20260430T18Z_MSC_RDPS_WindV_AGL-80m_RLatLon0.09_PT001H.grib2 2026-04-30 20:40 524K
20260430T18Z_MSC_RDPS_WindV_IsbL-0001_RLatLon0.09_PT001H.grib2 2026-04-30 20:40 240K
20260430T18Z_MSC_RDPS_WindV_IsbL-0005_RLatLon0.09_PT001H.grib2 2026-04-30 20:40 273K
20260430T18Z_MSC_RDPS_WindV_IsbL-0010_RLatLon0.09_PT001H.grib2 2026-04-30 20:40 282K
20260430T18Z_MSC_RDPS_WindV_IsbL-0020_RLatLon0.09_PT001H.grib2 2026-04-30 20:40 297K
20260430T18Z_MSC_RDPS_WindV_IsbL-0030_RLatLon0.09_PT001H.grib2 2026-04-30 20:40 300K
20260430T18Z_MSC_RDPS_WindV_IsbL-0050_RLatLon0.09_PT001H.grib2 2026-04-30 20:40 320K
20260430T18Z_MSC_RDPS_WindV_IsbL-0100_RLatLon0.09_PT001H.grib2 2026-04-30 20:40 408K
20260430T18Z_MSC_RDPS_WindV_IsbL-0150_RLatLon0.09_PT001H.grib2 2026-04-30 20:40 387K
20260430T18Z_MSC_RDPS_WindV_IsbL-0175_RLatLon0.09_PT001H.grib2 2026-04-30 20:40 411K
20260430T18Z_MSC_RDPS_WindV_IsbL-0200_RLatLon0.09_PT001H.grib2 2026-04-30 20:40 330K
20260430T18Z_MSC_RDPS_WindV_IsbL-0225_RLatLon0.09_PT001H.grib2 2026-04-30 20:40 335K
20260430T18Z_MSC_RDPS_WindV_IsbL-0250_RLatLon0.09_PT001H.grib2 2026-04-30 20:40 337K
20260430T18Z_MSC_RDPS_WindV_IsbL-0275_RLatLon0.09_PT001H.grib2 2026-04-30 20:40 352K
20260430T18Z_MSC_RDPS_WindV_IsbL-0300_RLatLon0.09_PT001H.grib2 2026-04-30 20:40 349K
20260430T18Z_MSC_RDPS_WindV_IsbL-0350_RLatLon0.09_PT001H.grib2 2026-04-30 20:40 356K
20260430T18Z_MSC_RDPS_WindV_IsbL-0400_RLatLon0.09_PT001H.grib2 2026-04-30 20:40 457K
20260430T18Z_MSC_RDPS_WindV_IsbL-0450_RLatLon0.09_PT001H.grib2 2026-04-30 20:40 457K
20260430T18Z_MSC_RDPS_WindV_IsbL-0500_RLatLon0.09_PT001H.grib2 2026-04-30 20:40 458K
20260430T18Z_MSC_RDPS_WindV_IsbL-0550_RLatLon0.09_PT001H.grib2 2026-04-30 20:40 460K
20260430T18Z_MSC_RDPS_WindV_IsbL-0600_RLatLon0.09_PT001H.grib2 2026-04-30 20:40 472K
20260430T18Z_MSC_RDPS_WindV_IsbL-0650_RLatLon0.09_PT001H.grib2 2026-04-30 20:40 475K
20260430T18Z_MSC_RDPS_WindV_IsbL-0700_RLatLon0.09_PT001H.grib2 2026-04-30 20:40 499K
20260430T18Z_MSC_RDPS_WindV_IsbL-0750_RLatLon0.09_PT001H.grib2 2026-04-30 20:40 524K
20260430T18Z_MSC_RDPS_WindV_IsbL-0800_RLatLon0.09_PT001H.grib2 2026-04-30 20:40 691K
20260430T18Z_MSC_RDPS_WindV_IsbL-0850_RLatLon0.09_PT001H.grib2 2026-04-30 20:40 610K
20260430T18Z_MSC_RDPS_WindV_IsbL-0875_RLatLon0.09_PT001H.grib2 2026-04-30 20:40 761K
20260430T18Z_MSC_RDPS_WindV_IsbL-0900_RLatLon0.09_PT001H.grib2 2026-04-30 20:40 775K
20260430T18Z_MSC_RDPS_WindV_IsbL-0925_RLatLon0.09_PT001H.grib2 2026-04-30 20:40 783K
20260430T18Z_MSC_RDPS_WindV_IsbL-0950_RLatLon0.09_PT001H.grib2 2026-04-30 20:40 780K
20260430T18Z_MSC_RDPS_WindV_IsbL-0970_RLatLon0.09_PT001H.grib2 2026-04-30 20:40 781K
20260430T18Z_MSC_RDPS_WindV_IsbL-0985_RLatLon0.09_PT001H.grib2 2026-04-30 20:40 778K
20260430T18Z_MSC_RDPS_WindV_IsbL-1000_RLatLon0.09_PT001H.grib2 2026-04-30 20:40 820K
20260430T18Z_MSC_RDPS_WindV_IsbL-1015_RLatLon0.09_PT001H.grib2 2026-04-30 20:40 813K